Vertical_Velocity
-4 -3 -3 -2 -3 -2 -2 -1 0 0 -0 -3 -2 -1 1 -0 2 3 -4 -3 -3 -2 1 3 3 1 3 2 2 -2 4 3 4 -2 -2 -4 -2 0 2 3 2 -1 2 4
3 -2 -2 -2 -3 -3 1 -0 -2 -1 4 -2 1 -0 0 1 1 0 2 1 -0 1 6 6 3 2 -4 -3 1 3 4 0 -1 -6 -6 -3 -2 -5 -3 -1 0 -1 -1 -1
-1 -1 0 2 -1 1 -4 -2 -1 -1 -4 -4 -1 -1 1 1 -0 -1 0 -1 -0 4 4 1 2 0 -2 2 -0 -3 -2 -4 -1 -2 1 4 5 6 3 -0 -2 -9 -1 1
1 3 -1 -1 -3 -3 -2 -1 -2 -3 0 -2 -1 -3 -0 -2 -1 1 -1 2 1 -3 -6 -5 -6 -5 -10 -9 -2 -0 1 -0 0 4 6 4 3 1 3 -2 0 2 4 -0
-1 -1 -1 -2 -4 -3 -1 1 0 0 1 0 0 1 5 1 2 2 0 1 -4 -1 -1 -4 1 2 1 7 5 2 4 2 -1 -1 1 -0 -6 -11 -7 -0 -2 3 2 1
-0 0 0 -1 0 -1 -1 1 -0 -0 2 -2 -1 -2 -0 0 4 1 -1 1 3 -1 0 1 -0 1 2 4 3 3 2 1 -1 -1 -2 -2 -2 -2 -2 -0 -3 -0 -2 -2
0 1 -0 -0 -2 -1 0 -0 -2 -3 -4 -5 -1 2 2 4 2 3 2 1 3 4 3 3 -1 3 2 1 1 0 1 4 5 7 0 -1 -1 1 -1 3 -3 -1 0 -2
-1 0 -1 -2 -1 -1 -4 -4 -2 -2 -2 -4 1 -1 -2 -0 -4 -2 -0 -1 -3 -3 -2 -3 2 3 2 2 3 2 -0 -4 2 4 3 2 2 -1 0 -1 -1 -0 -5 -3
-1 0 -0 -2 1 -1 -1 -2 -2 -1 -0 -1 -1 5 9 3 4 1 -1 1 -3 -2 -1 -1 -0 4 6 -2 -3 -2 1 1 4 2 4 7 9 3 -1 -4 -2 -2 0 -2
-2 -2 -0 -1 1 -0 -1 -1 -1 -2 -4 -1 -4 -0 1 9 1 1 3 5 -2 -5 -1 2 1 0 0 1 2 4 1 2 4 3 4 -6 -4 3 2 1 2 2 -3 0
-1 -1 1 1 4 1 0 -1 -1 -2 1 -3 -1 -9 -0 2 5 1 -2 -0 3 3 2 2 1 2 -0 0 0 3 3 3 3 -4 -4 -3 -1 -7 -6 -6 1 3 1 2
-0 -1 -4 -1 1 -1 0 1 1 -2 -0 0 2 -33 3 -2 -1 -7 -4 -1 -1 -4 -3 -1 -2 1 3 1 2 -2 -2 -3 -4 -3 -1 -4 -2 -1 -4 0 -2 0 2 1
-2 -2 -5 -7 5 5 3 1 -0 1 2 -8 4 -23 2 2 -2 -3 -5 -4 -5 -2 2 -3 2 -3 -5 -4 -2 -1 -0 -1 -5 -4 -5 0 -1 -1 -4 -4 -2 0 -6 1
-3 -1 -2 -5 -5 5 1 7 1 7 2 -6 -16 -16 1 -3 -2 -1 1 1 2 1 -1 -2 -2 -0 -0 -1 -3 0 2 -5 -9 -6 -4 -7 -3 -2 -1 -3 1 3 1 6
-1 -2 -0 -1 -8 -3 -1 -4 7 -2 6 1 -15 -2 6 4 3 -1 -0 -1 -3 -4 -3 -1 -3 -1 -8 -1 1 -1 0 2 0 -2 -2 -4 -1 -5 1 3 1 -3 4 7
-0 -4 -1 -3 -1 -2 -11 11 1 6 7 2 6 -16 6 5 2 -2 0 -1 2 1 -0 -1 -0 -1 0 -0 -1 -2 -4 -3 -1 1 -3 1 1 -4 -3 -1 1 -0 -0 -0
-1 -1 -1 -9 1 -6 -10 1 1 -3 -2 7 -1 3 5 1 4 -0 4 0 -4 -5 -6 -4 -3 -1 0 -2 -1 0 -0 -2 -2 -0 -1 -3 -4 2 1 -1 -2 -2 -0 -1
-2 3 3 -8 2 -5 2 2 1 1 -8 6 -5 7 2 2 1 -4 1 -8 1 -0 1 3 -1 -3 -3 -4 -4 -3 -0 1 3 0 -4 -0 4 5 2 2 0 -2 -2 1
2 4 0 -1 -1 -8 -38 -1 -1 5 -21 3 1 5 -2 2 2 11 -4 -8 -8 -8 0 -4 -9 -10 -6 -10 -4 -5 5 2 2 -3 -1 0 1 0 -0 -1 -1 1 2 2
1 4 6 5 3 -1 -11 3 -3 -2 -24 -2 -1 -1 -5 -4 -16 -6 -4 8 11 -2 -12 -8 -4 -1 -4 -1 -3 -5 -2 -2 -3 -3 -3 -2 -2 -0 1 -1 -1 -0 -0 -0
-2 -0 -2 2 2 -14 -1 5 9 5 -8 -9 -2 7 2 -2 3 -4 1 6 -1 -11 -7 -7 2 0 -5 -6 -5 -4 -2 -4 1 -1 -2 -1 2 1 -0 -0 -1 1 1 1
-4 4 -1 5 -1 -13 -1 -2 1 9 -4 -1 2 5 -4 1 10 2 -1 -1 -6 -8 -6 2 -5 -6 -8 -1 1 -1 -5 -1 2 1 4 0 -1 -0 -0 1 2 2 1 1
-16 4 6 2 -26 -4 -1 -4 6 7 2 -3 4 2 -3 25 3 6 1 -3 -3 -5 -5 2 -6 -6 -7 -5 -7 -2 -3 -1 0 -0 1 -1 1 1 -1 -1 1 -1 -1 -3
-13 8 -3 21 -14 -2 1 8 12 3 3 -0 4 2 4 -4 -3 7 8 -5 -8 -1 -4 -6 -3 -1 -3 -1 0 0 -1 -1 0 -1 -1 0 -1 -0 -1 1 -2 -2 -3 -0
-9 4 -1 -13 -15 -2 -1 7 -3 7 -4 2 18 4 4 4 -2 1 5 -2 -3 -2 -3 -2 -1 -2 -1 -3 3 -0 -2 -2 -1 -1 -0 0 -0 -2 0 1 -3 -2 -1 -6
-7 -0 2 -14 -3 12 1 -11 16 -3 4 -3 13 -0 0 1 -4 -5 3 3 -3 -6 -5 -0 3 2 -0 -4 -1 -1 -1 -1 -1 1 -1 -0 1 0 -2 -2 5 2 -3 -2
Height
3157 3158 3157 3156 3157 3157 3157 3156 3155 3155 3154 3151 3149 3148 3146 3145 3147 3149 3149 3149 3149 3148 3149 3150 3150 3150 3150 3150 3149 3148 3147 3145 3142 3140 3136 3133 3130 3127 3125 3121 3117 3112 3108 3103
3157 3156 3157 3157 3157 3157 3156 3155 3154 3153 3152 3149 3149 3148 3146 3146 3146 3147 3147 3148 3148 3147 3148 3148 3148 3148 3147 3147 3147 3146 3144 3142 3139 3134 3130 3126 3123 3120 3118 3115 3112 3108 3102 3098
3156 3158 3157 3157 3157 3156 3155 3154 3152 3151 3148 3148 3148 3148 3146 3145 3145 3146 3147 3147 3147 3147 3147 3147 3147 3146 3145 3144 3143 3141 3139 3136 3131 3127 3122 3118 3114 3111 3108 3106 3102 3099 3094 3089
3157 3157 3157 3156 3155 3155 3153 3151 3148 3148 3148 3148 3147 3147 3146 3145 3145 3145 3146 3147 3146 3145 3145 3145 3144 3142 3140 3139 3137 3135 3132 3128 3124 3120 3117 3112 3108 3103 3101 3097 3092 3087 3083 3078
3157 3156 3156 3156 3155 3153 3152 3148 3145 3144 3144 3145 3147 3147 3147 3145 3144 3145 3145 3145 3143 3143 3142 3140 3139 3137 3135 3133 3131 3129 3125 3121 3118 3114 3109 3105 3101 3097 3092 3088 3081 3077 3073 3068
3156 3155 3156 3155 3153 3151 3149 3146 3144 3144 3144 3145 3146 3148 3146 3144 3144 3144 3143 3142 3141 3140 3138 3137 3136 3134 3131 3129 3127 3124 3120 3117 3112 3108 3103 3098 3093 3087 3081 3077 3070 3065 3060 3055
3155 3154 3154 3154 3153 3150 3149 3145 3145 3146 3146 3146 3145 3145 3144 3144 3143 3143 3142 3141 3140 3139 3137 3135 3133 3130 3127 3123 3120 3116 3112 3108 3103 3099 3094 3090 3085 3078 3071 3065 3058 3052 3047 3042
3154 3154 3154 3153 3152 3151 3149 3148 3148 3151 3152 3147 3143 3142 3142 3141 3139 3137 3137 3137 3135 3133 3131 3129 3126 3123 3120 3117 3113 3109 3104 3099 3096 3090 3084 3078 3072 3066 3060 3053 3047 3040 3033 3027
3154 3153 3153 3152 3151 3152 3150 3150 3151 3150 3150 3149 3143 3141 3142 3138 3137 3135 3133 3132 3130 3128 3125 3122 3119 3116 3113 3109 3105 3101 3096 3091 3086 3079 3073 3067 3061 3056 3049 3044 3036 3028 3020 3013
3155 3153 3153 3151 3151 3151 3150 3151 3151 3150 3154 3151 3143 3140 3139 3138 3137 3134 3130 3127 3124 3121 3119 3117 3114 3111 3107 3102 3097 3092 3085 3079 3072 3066 3062 3057 3051 3044 3038 3031 3023 3016 3009 3001
3154 3154 3154 3151 3150 3149 3150 3149 3150 3151 3151 3151 3150 3140 3137 3135 3134 3130 3127 3124 3120 3117 3114 3111 3109 3105 3099 3093 3089 3083 3077 3071 3065 3060 3053 3047 3040 3034 3027 3018 3010 3003 2995 2989
3154 3153 3151 3150 3148 3147 3148 3148 3149 3149 3151 3150 3148 3135 3132 3131 3129 3127 3124 3120 3116 3113 3109 3106 3102 3098 3092 3087 3081 3074 3067 3061 3056 3050 3044 3037 3029 3020 3012 3003 2997 2990 2983 2978
3154 3153 3151 3149 3150 3148 3147 3146 3147 3147 3145 3145 3146 3133 3130 3129 3127 3122 3118 3114 3111 3108 3104 3100 3096 3089 3083 3075 3068 3062 3057 3051 3046 3040 3033 3025 3017 3007 2998 2989 2982 2976 2973 2971
3152 3152 3152 3152 3149 3147 3144 3143 3143 3143 3141 3137 3131 3125 3124 3124 3119 3116 3112 3108 3106 3102 3095 3089 3084 3077 3070 3064 3059 3053 3049 3043 3036 3028 3019 3010 3002 2993 2985 2978 2974 2970 2967 2964
3150 3148 3147 3146 3144 3142 3138 3136 3136 3134 3132 3131 3123 3121 3118 3115 3111 3108 3105 3103 3098 3091 3084 3078 3072 3066 3061 3056 3051 3046 3039 3032 3023 3015 3006 2997 2989 2981 2976 2972 2967 2964 2961 2958
3147 3145 3142 3138 3138 3137 3130 3128 3128 3127 3125 3120 3118 3113 3113 3109 3104 3102 3098 3092 3086 3081 3075 3070 3064 3059 3053 3048 3043 3036 3029 3021 3013 3003 2995 2987 2980 2975 2971 2968 2963 2959 2955 2950
3144 3143 3140 3135 3134 3132 3127 3123 3123 3122 3121 3118 3113 3111 3106 3102 3099 3095 3089 3086 3081 3075 3068 3062 3057 3052 3047 3041 3034 3026 3019 3010 3001 2992 2985 2980 2974 2969 2965 2961 2957 2952 2949 2945
3140 3140 3139 3134 3132 3133 3124 3121 3120 3116 3115 3113 3108 3106 3101 3096 3092 3089 3084 3079 3072 3066 3061 3055 3050 3044 3039 3032 3024 3017 3008 2999 2991 2984 2978 2974 2970 2965 2960 2956 2951 2946 2942 2938
3138 3136 3134 3132 3128 3124 3118 3116 3114 3110 3106 3106 3103 3100 3095 3090 3084 3083 3077 3071 3065 3060 3054 3049 3043 3036 3029 3022 3014 3005 2998 2989 2982 2976 2972 2968 2963 2959 2954 2949 2944 2940 2935 2930
3135 3134 3133 3128 3126 3119 3113 3112 3109 3105 3096 3098 3096 3092 3088 3083 3074 3070 3065 3060 3054 3049 3045 3040 3034 3027 3019 3011 3002 2994 2988 2981 2976 2971 2966 2961 2957 2952 2947 2942 2938 2933 2927 2923
3132 3130 3127 3124 3119 3110 3106 3106 3105 3103 3098 3088 3086 3082 3077 3073 3068 3061 3057 3054 3047 3042 3037 3032 3025 3017 3008 3001 2992 2986 2980 2974 2970 2965 2961 2956 2951 2945 2940 2936 2930 2925 2921 2916
3128 3126 3120 3116 3115 3107 3102 3101 3101 3096 3088 3084 3078 3073 3068 3062 3058 3053 3048 3044 3039 3034 3029 3023 3016 3009 3001 2993 2986 2979 2974 2970 2965 2960 2955 2950 2944 2939 2934 2929 2924 2919 2913 2908
3119 3117 3114 3112 3104 3102 3098 3094 3093 3087 3079 3074 3069 3063 3059 3054 3049 3044 3040 3036 3032 3025 3021 3014 3007 3001 2994 2986 2979 2973 2968 2963 2959 2954 2949 2944 2939 2933 2928 2923 2917 2912 2906 2900
3108 3108 3104 3100 3096 3091 3088 3087 3085 3077 3070 3064 3060 3054 3050 3045 3041 3039 3033 3029 3025 3018 3013 3006 2999 2992 2986 2979 2972 2966 2961 2957 2953 2948 2943 2938 2933 2928 2923 2917 2910 2904 2899 2894
3101 3098 3094 3089 3085 3082 3080 3076 3071 3066 3062 3058 3051 3046 3043 3038 3035 3032 3028 3022 3016 3010 3004 2998 2991 2985 2978 2972 2967 2961 2956 2952 2947 2942 2937 2933 2928 2922 2917 2910 2904 2899 2893 2887
3093 3091 3087 3079 3081 3074 3069 3064 3059 3058 3052 3047 3044 3042 3036 3032 3029 3026 3022 3015 3009 3003 2996 2989 2984 2977 2970 2966 2960 2955 2950 2946 2941 2937 2932 2927 2922 2917 2911 2905 2901 2895 2889 2883